H1 CPF 2 NER 2022 10 25 9 298 01 glonass139 H2 1808601 9139 43687 2022 10 25 0 0 0 2022 10 28 23 45 0 900 1 1 0 0 0 1 H9 10 0 59877 0.00000 0 1172788.931 -11466018.870 22777412.105 10 0 59877 900.00000 0 3774223.817 -10379085.042 23014932.587 10 0 59877 1800.00000 0 6449059.438 -9482219.827 22806531.316 10 0 59877 2700.00000 0 9130684.988 -8794227.091 22156226.282 10 0 59877 3600.00000 0 11750691.683 -8321874.761 21076574.584 10 0 59877 4500.00000 0 14241490.848 -8059729.844 19588435.081 10 0 59877 5400.00000 0 16538908.927 -7990519.111 17720573.057 10 0 59877 6300.00000 0 18584653.007 -8086000.290 15509113.567 10 0 59877 7200.00000 0 20328545.336 -8308307.454 12996852.935 10 0 59877 8100.00000 0 21730434.510 -8611714.460 10232440.529 10 0 59877 9000.00000 0 22761703.992 -8944742.707 7269445.459 10 0 59877 9900.00000 0 23406314.855 -9252524.762 4165325.429 10 0 59877 10800.00000 0 23661338.922 -9479324.305 980317.007 10 0 59877 11700.00000 0 23536959.491 -9571105.825 -2223731.539 10 0 59877 12600.00000 0 23055939.114 -9478044.971 -5384562.103 10 0 59877 13500.00000 0 22252576.357 -9156872.540 -8440719.727 10 0 59877 14400.00000 0 21171195.049 -8572951.717 -11332752.600 10 0 59877 15300.00000 0 19864229.444 -7701999.277 -14004375.011 10 0 59877 16200.00000 0 18389985.902 -6531376.252 -16403569.886 10 0 59877 17100.00000 0 16810175.473 -5060891.722 -18483608.766 10 0 59877 18000.00000 0 15187321.572 -3303083.983 -20203968.654 10 0 59877 18900.00000 0 13582152.138 -1282965.406 -21531127.390 10 0 59877 19800.00000 0 12051086.327 962759.978 -22439221.724 10 0 59877 20700.00000 0 10643921.635 3386974.772 -22910554.962 10 0 59877 21600.00000 0 9401818.828 5933870.090 -22935944.205 10 0 59877 22500.00000 0 8355669.174 8541039.935 -22514900.355 10 0 59877 23400.00000 0 7524912.390 11141861.184 -21655637.346 10 0 59877 24300.00000 0 6916854.377 13668060.250 -20374910.446 10 0 59877 25200.00000 0 6526512.681 16052359.550 -18697686.818 10 0 59877 26100.00000 0 6336995.210 18231093.365 -16656654.844 10 0 59877 27000.00000 0 6320395.096 20146683.985 -14291581.944 10 0 59877 27900.00000 0 6439162.666 21749874.846 -11648533.625 10 0 59877 28800.00000 0 6647895.297 23001627.489 -8778969.429 10 0 59877 29700.00000 0 6895468.163 23874603.500 -5738733.894 10 0 59877 30600.00000 0 7127414.480 24354170.090 -2586962.794 10 0 59877 31500.00000 0 7288453.434 24438888.125 615073.239 10 0 59877 32400.00000 0 7325057.799 24140463.419 3805164.534 10 0 59877 33300.00000 0 7187951.876 23483164.708 6921373.750 10 0 59877 34200.00000 0 6834433.605 22502734.188 9903238.692 10 0 59877 35100.00000 0 6230422.393 21244837.749 12692943.045 10 0 59877 36000.00000 0 5352146.128 19763121.071 15236432.386 10 0 59877 36900.00000 0 4187396.216 18116953.963 17484454.195 10 0 59877 37800.00000 0 2736297.823 16368957.894 19393502.470 10 0 59877 38700.00000 0 1011562.780 14582420.142 20926649.658 10 0 59877 39600.00000 0 -961785.792 12818702.273 22054250.891 10 0 59877 40500.00000 0 -3147206.261 11134750.296 22754508.140 10 0 59877 41400.00000 0 -5497916.599 9580809.238 23013884.455 10 0 59877 42300.00000 0 -7958605.771 8198436.194 22827361.157 10 0 59877 43200.00000 0 -10467508.716 7018893.279 22198533.585 10 0 59877 44100.00000 0 -12958760.398 6061986.254 21139543.699 10 0 59877 45000.00000 0 -15364932.690 5335396.229 19670850.616 10 0 59877 45900.00000 0 -17619650.407 4834531.553 17820842.906 10 0 59877 46800.00000 0 -19660179.120 4542905.612 15625299.169 10 0 59877 47700.00000 0 -21429878.170 4433024.523 13126706.259 10 0 59877 48600.00000 0 -22880417.439 4467747.550 10373447.119 10 0 59877 49500.00000 0 -23973665.776 4602063.228 7418872.765 10 0 59877 50400.00000 0 -24683172.078 4785206.658 4320275.507 10 0 59877 51300.00000 0 -24995176.719 4963028.793 1137782.605 10 0 59877 52200.00000 0 -24909110.337 5080517.578 -2066808.628 10 0 59877 53100.00000 0 -24437558.313 5084364.036 -5231231.541 10 0 59877 54000.00000 0 -23605691.705 4925464.026 -8293963.174 10 0 59877 54900.00000 0 -22450187.903 4561248.814 -11195425.503 10 0 59877 55800.00000 0 -21017685.891 3957744.526 -13879150.751 10 0 59877 56700.00000 0 -19362840.796 3091271.810 -16292887.436 10 0 59877 57600.00000 0 -17546059.402 1949712.161 -18389624.868 10 0 59877 58500.00000 0 -15631011.898 533285.653 -20128515.462 10 0 59877 59400.00000 0 -13682024.581 -1145194.518 -21475676.454 10 0 59877 60300.00000 0 -11761463.143 -3060603.123 -22404855.001 10 0 59877 61200.00000 0 -9927216.607 -5176309.358 -22897943.469 10 0 59877 62100.00000 0 -8230387.449 -7445476.161 -22945334.743 10 0 59877 63000.00000 0 -6713284.680 -9812799.085 -22546110.577 10 0 59877 63900.00000 0 -5407803.728 -12216612.683 -21708059.276 10 0 59877 64800.00000 0 -4334260.484 -14591276.872 -20447522.405 10 0 59877 65700.00000 0 -3500727.591 -16869743.836 -18789073.499 10 0 59877 66600.00000 0 -2902899.798 -18986198.228 -16765035.166 10 0 59877 67500.00000 0 -2524492.709 -20878660.291 -14414844.107 10 0 59877 68400.00000 0 -2338156.660 -22491443.018 -11784276.678 10 0 59877 69300.00000 0 -2306865.642 -23777360.465 -8924550.493 10 0 59877 70200.00000 0 -2385721.019 -24699594.919 -5891320.080 10 0 59877 71100.00000 0 -2524092.265 -25233145.059 -2743586.764 10 0 59877 72000.00000 0 -2668002.757 -25365794.930 457455.221 10 0 59877 72900.00000 0 -2762658.454 -25098563.982 3649613.220 10 0 59877 73800.00000 0 -2755011.419 -24445620.326 6770907.392 10 0 59877 74700.00000 0 -2596249.047 -23433662.050 9760774.554 10 0 59877 75600.00000 0 -2244103.286 -22100793.737 12561241.076 10 0 59877 76500.00000 0 -1664882.069 -20494946.382 15118042.122 10 0 59877 77400.00000 0 -835137.274 -18671907.768 17381665.867 10 0 59877 78300.00000 0 257101.077 -16693046.212 19308303.221 10 0 59877 79200.00000 0 1611576.277 -14622822.920 20860685.651 10 0 59877 80100.00000 0 3215573.631 -12526196.468 22008795.979 10 0 59877 81000.00000 0 5044216.505 -10466026.891 22730439.663 10 0 59877 81900.00000 0 7061278.156 -8500586.377 23011666.576 10 0 59877 82800.00000 0 9220476.412 -6681278.909 22847036.048 10 0 59877 83700.00000 0 11467198.659 -5050662.273 22239720.592 10 0 59877 84600.00000 0 13740586.861 -3640853.263 21201446.540 10 0 59877 85500.00000 0 15975897.439 -2472381.267 19752272.461 10 0 59878 0.00000 0 18107039.302 -1553536.932 17920209.285 10 0 59878 900.00000 0 20069186.956 -880241.826 15740687.427 10 0 59878 1800.00000 0 21801358.164 -436445.260 13255882.724 10 0 59878 2700.00000 0 23248853.330 -195029.696 10513909.687 10 0 59878 3600.00000 0 24365452.255 -119187.986 7567898.932 10 0 59878 4500.00000 0 25115277.562 -164214.032 4474974.781 10 0 59878 5400.00000 0 25474246.182 -279631.557 1295152.337 10 0 59878 6300.00000 0 25431047.354 -411571.046 -1909825.059 10 0 59878 7200.00000 0 24987605.180 -505294.188 -5077685.333 10 0 59878 8100.00000 0 24159005.340 -507758.480 -8146840.634 10 0 59878 9000.00000 0 22972888.061 -370112.638 -11057589.697 10 0 59878 9900.00000 0 21468332.046 -50016.117 -13753285.464 10 0 59878 10800.00000 0 19694275.610 486316.790 -16181444.541 10 0 59878 11700.00000 0 17707540.887 1262436.243 -18294776.202 10 0 59878 12600.00000 0 15570543.872 2290412.197 -20052110.176 10 0 59878 13500.00000 0 13348786.316 3570079.997 -21419204.680 10 0 59878 14400.00000 0 11108234.621 5088809.707 -22369418.578 10 0 59878 15300.00000 0 8912695.695 6821810.370 -22884234.283 10 0 59878 16200.00000 0 6821299.623 8732957.781 -22953621.122 10 0 59878 17100.00000 0 4886194.399 10776112.198 -22576231.993 10 0 59878 18000.00000 0 3150548.941 12896871.551 -21759429.476 10 0 59878 18900.00000 0 1646947.437 15034687.314 -20519140.901 10 0 59878 19800.00000 0 396241.408 17125254.815 -18879545.205 10 0 59878 20700.00000 0 -593093.383 19103077.925 -16872597.793 10 0 59878 21600.00000 0 -1325069.585 20904100.732 -14537402.788 10 0 59878 22500.00000 0 -1815767.304 22468295.793 -11919445.111 10 0 59878 23400.00000 0 -2092398.926 23742100.275 -9069697.787 10 0 59878 24300.00000 0 -2191900.965 24680597.753 -6043622.354 10 0 59878 25200.00000 0 -2159114.156 25249354.190 -2900082.447 10 0 59878 26100.00000 0 -2044630.342 25425831.249 299807.505 10 0 59878 27000.00000 0 -1902398.743 25200318.110 3493875.341 10 0 59878 27900.00000 0 -1787194.116 24576343.374 6620102.167 10 0 59878 28800.00000 0 -1752054.836 23570550.625 9617827.145 10 0 59878 29700.00000 0 -1845799.894 22212043.836 12428922.460 10 0 59878 30600.00000 0 -2110730.059 20541230.947 14998915.730 10 0 59878 31500.00000 0 -2580610.279 18608214.817 17278038.386 10 0 59878 32400.00000 0 -3279018.332 16470799.315 19222180.466 10 0 59878 33300.00000 0 -4218129.081 14192193.940 20793734.307 10 0 59878 34200.00000 0 -5397985.352 11838512.440 21962311.895 10 0 59878 35100.00000 0 -6806286.178 9476168.938 22705323.224 10 0 59878 36000.00000 0 -8418701.714 7169278.799 23008405.605 10 0 59878 36900.00000 0 -10199702.355 4977171.030 22865696.493 10 0 59878 37800.00000 0 -12103868.556 2952114.041 22279945.188 10 0 59878 38700.00000 0 -14077628.049 1137347.678 21262461.453 10 0 59878 39600.00000 0 -16061349.511 -434498.070 19832901.822 10 0 59878 40500.00000 0 -17991707.000 -1742533.238 18018897.193 10 0 59878 41400.00000 0 -19804218.074 -2778240.922 15855527.935 10 0 59878 42300.00000 0 -21435850.888 -3545587.485 13384655.611 10 0 59878 43200.00000 0 -22827592.400 -4060605.863 10654123.025 10 0 59878 44100.00000 0 -23926870.796 -4350469.709 7716836.876 10 0 59878 45000.00000 0 -24689730.809 -4452097.322 4629749.896 10 0 59878 45900.00000 0 -25082670.419 -4410344.198 1452761.413 10 0 59878 46800.00000 0 -25084061.140 -4275860.468 -1752442.734 10 0 59878 47700.00000 0 -24685091.219 -4102703.884 -4923588.411 10 0 59878 48600.00000 0 -23890190.952 -3945809.691 -7999026.038 10 0 59878 49500.00000 0 -22716920.988 -3858425.062 -10918934.036 10 0 59878 50400.00000 0 -21195327.152 -3889617.557 -13626488.701 10 0 59878 51300.00000 0 -19366787.904 -4081964.201 -16068977.047 10 0 59878 52200.00000 0 -17282401.995 -4469520.240 -18198830.253 10 0 59878 53100.00000 0 -15000983.451 -5076154.871 -19974556.845 10 0 59878 54000.00000 0 -12586747.555 -5914325.739 -21361557.007 10 0 59878 54900.00000 0 -10106784.535 -6984345.391 -22332801.740 10 0 59878 55800.00000 0 -7628426.628 -8274171.955 -22869363.386 10 0 59878 56700.00000 0 -5216618.512 -9759734.167 -22960787.050 10 0 59878 57600.00000 0 -2931400.853 -11405778.118 -22605295.634 10 0 59878 58500.00000 0 -825611.907 -13167201.025 -21809824.422 10 0 59878 59400.00000 0 1057097.264 -14990816.595 -20589884.590 10 0 59878 60300.00000 0 2683851.691 -16817478.336 -18969258.285 10 0 59878 61200.00000 0 4033679.971 -18584471.746 -16979531.307 10 0 59878 62100.00000 0 5098134.328 -20228074.977 -14659472.639 10 0 59878 63000.00000 0 5881378.807 -21686180.284 -12054273.108 10 0 59878 63900.00000 0 6399743.552 -22900865.845 -9214658.443 10 0 59878 64800.00000 0 6680765.827 -23820809.674 -6195894.475 10 0 59878 65700.00000 0 6761760.126 -24403443.994 -3056704.472 10 0 59878 66600.00000 0 6687979.548 -24616759.449 141879.547 10 0 59878 67500.00000 0 6510447.881 -24440683.494 3337708.418 10 0 59878 68400.00000 0 6283555.514 -23867975.400 6468726.568 10 0 59878 69300.00000 0 6062522.025 -22904600.810 9474177.725 10 0 59878 70200.00000 0 5900833.539 -21569570.799 12295781.938 10 0 59878 71100.00000 0 5847763.647 -19894252.868 14878861.128 10 0 59878 72000.00000 0 5946082.652 -17921183.317 17173391.614 10 0 59878 72900.00000 0 6230051.666 -15702431.075 19134963.945 10 0 59878 73800.00000 0 6723785.754 -13297581.349 20725632.439 10 0 59878 74700.00000 0 7440054.672 -10771422.939 21914639.058 10 0 59878 75600.00000 0 8379571.375 -8191434.800 22678998.847 10 0 59878 76500.00000 0 9530798.192 -5625175.309 23003936.756 10 0 59878 77400.00000 0 10870279.102 -3137681.394 22883168.288 10 0 59878 78300.00000 0 12363484.914 -788983.944 22319019.171 10 0 59878 79200.00000 0 13966137.068 1368159.030 21322381.989 10 0 59878 80100.00000 0 15625955.997 3290218.877 19912510.396 10 0 59878 81000.00000 0 17284762.443 4944462.642 18116654.373 10 0 59878 81900.00000 0 18880845.407 6310065.303 15969542.624 10 0 59878 82800.00000 0 20351499.006 7378722.481 13512721.076 10 0 59878 83700.00000 0 21635623.143 8154738.736 10793759.072 10 0 59878 84600.00000 0 22676279.794 8654588.171 7865337.404 10 0 59878 85500.00000 0 23423097.881 8905965.959 4784234.960 10 0 59879 0.00000 0 23834425.620 8946370.788 1610233.121 10 0 59879 900.00000 0 23879139.396 8821277.981 -1595042.998 10 0 59879 1800.00000 0 23538031.612 8581980.467 -4769319.674 10 0 59879 2700.00000 0 22804718.625 8283189.178 -7850888.391 10 0 59879 3600.00000 0 21686028.479 7980494.692 -10779809.977 10 0 59879 4500.00000 0 20201851.029 7727798.258 -13499086.677 10 0 59879 5400.00000 0 18384455.306 7574821.778 -15955778.305 10 0 59879 6300.00000 0 16277301.612 7564803.166 -18102040.111 10 0 59879 7200.00000 0 13933397.278 7732475.703 -19896061.367 10 0 59879 8100.00000 0 11413264.244 8102418.017 -21302885.943 10 0 59879 9000.00000 0 8782603.031 8687845.623 -22295098.490 10 0 59879 9900.00000 0 6109750.532 9489896.137 -22853362.553 10 0 59879 10800.00000 0 3463037.575 10497439.372 -22966800.044 10 0 59879 11700.00000 0 908156.359 11687421.236 -22633204.569 10 0 59879 12600.00000 0 -1494352.519 13025727.657 -21859084.452 10 0 59879 13500.00000 0 -3691389.000 14468532.712 -20659534.617 10 0 59879 14400.00000 0 -5639263.468 15964074.581 -19057939.848 10 0 59879 15300.00000 0 -7305266.074 17454784.707 -17085515.288 10 0 59879 16200.00000 0 -8668770.942 18879680.521 -14780693.256 10 0 59879 17100.00000 0 -9721830.386 20176920.823 -12188368.531 10 0 59879 18000.00000 0 -10469235.759 21286415.907 -9359017.205 10 0 59879 18900.00000 0 -10928044.216 22152382.177 -6347706.759 10 0 59879 19800.00000 0 -11126593.243 22725733.327 -3213017.192 10 0 59879 20700.00000 0 -11103046.392 22966207.133 -15895.061 10 0 59879 21600.00000 0 -10903533.511 22844138.215 3181536.629 10 0 59879 22500.00000 0 -10579965.674 22341802.224 6317188.817 10 0 59879 23400.00000 0 -10187618.527 21454275.185 9330212.954 10 0 59879 24300.00000 0 -9782587.214 20189772.267 12162180.026 10 0 59879 25200.00000 0 -9419221.041 18569452.191 14758209.193 10 0 59879 26100.00000 0 -9147646.404 16626695.919 17068024.407 10 0 59879 27000.00000 0 -9011482.355 14405890.026 19046919.254 10 0 59879 27900.00000 0 -9045844.682 11960765.582 20656612.296 10 0 59879 28800.00000 0 -9275721.972 9352361.518 21865977.428 10 0 59879 29700.00000 0 -9714791.394 6646696.597 22651636.367 10 0 59879 30600.00000 0 -10364723.556 3912245.684 22998402.936 10 0 59879 31500.00000 0 -11215005.439 1217323.873 22899571.473 10 0 59879 32400.00000 0 -12243289.058 -1372514.595 22357044.450 10 0 59879 33300.00000 0 -13416251.842 -3796956.414 21381297.062 10 0 59879 34200.00000 0 -14690933.590 -6003186.982 19991179.329 10 0 59879 35100.00000 0 -16016495.243 -7947833.739 18213559.005 10 0 59879 36000.00000 0 -17336327.100 -9598515.637 16082811.288 10 0 59879 36900.00000 0 -18590419.447 -10934935.277 13640164.137 10 0 59879 37800.00000 0 -19717897.317 -11949468.966 10932910.676 10 0 59879 38700.00000 0 -20659613.851 -12647230.574 8013502.694 10 0 59879 39600.00000 0 -21360693.724 -13045606.714 4938541.894 10 0 59879 40500.00000 0 -21772919.673 -13173282.912 1767687.632 10 0 59879 41400.00000 0 -21856861.216 -13068801.786 -1437498.124 10 0 59879 42300.00000 0 -21583654.993 -12778713.977 -4614746.219 10 0 59879 43200.00000 0 -20936360.503 -12355400.074 -7702292.710 10 0 59879 44100.00000 0 -19910832.593 -11854655.836 -10640084.252 10 0 59879 45000.00000 0 -18516072.393 -11333143.251 -13370952.264 10 0 59879 45900.00000 0 -16774040.293 -10845815.952 -15841732.355 10 0 59879 46800.00000 0 -14718937.309 -10443428.643 -18004306.503 10 0 59879 47700.00000 0 -12395983.710 -10170236.795 -19816546.955 10 0 59879 48600.00000 0 -9859745.039 -10061984.789 -21243142.989 10 0 59879 49500.00000 0 -7172074.712 -10144268.455 -22256294.041 10 0 59879 50400.00000 0 -4399758.694 -10431342.014 -22836255.388 10 0 59879 51300.00000 0 -1611960.143 -10925420.563 -22971725.653 10 0 59879 52200.00000 0 1122429.695 -11616508.162 -22660068.483 10 0 59879 53100.00000 0 3737424.048 -12482759.272 -21907364.059 10 0 59879 54000.00000 0 6172447.229 -13491358.624 -20728289.446 10 0 59879 54900.00000 0 8374611.178 -14599882.625 -19145830.088 10 0 59879 55800.00000 0 10300667.472 -15758084.858 -17190828.191 10 0 59879 56700.00000 0 11918554.131 -16910030.262 -14901376.874 10 0 59879 57600.00000 0 13208473.633 -17996487.670 -12322072.114 10 0 59879 58500.00000 0 14163458.302 -18957479.345 -9503137.435 10 0 59879 59400.00000 0 14789401.005 -19734879.516 -6499438.896 10 0 59879 60300.00000 0 15104551.690 -20274951.749 -3369410.097 10 0 59879 61200.00000 0 15138502.826 -20530717.715 -173908.975 10 0 59879 62100.00000 0 14930708.450 -20464057.124 3024970.690 10 0 59879 63000.00000 0 14528601.103 -20047450.153 6165109.277 10 0 59879 63900.00000 0 13985387.646 -19265288.991 9185568.647 10 0 59879 64800.00000 0 13357618.306 -18114703.445 12027773.130 10 0 59879 65700.00000 0 12702632.358 -16605866.143 14636641.199 10 0 59879 66600.00000 0 12075988.597 -14761764.772 16961646.163 10 0 59879 67500.00000 0 11528988.929 -12617450.986 18957786.011 10 0 59879 68400.00000 0 11106398.963 -10218797.275 20586444.559 10 0 59879 69300.00000 0 10844460.886 -7620813.355 21816128.309 10 0 59879 70200.00000 0 10769281.343 -4885591.492 22623065.993 10 0 59879 71100.00000 0 10895661.293 -2079965.115 22991660.351 10 0 59879 72000.00000 0 11226416.327 727023.277 22914784.333 10 0 59879 72900.00000 0 11752215.642 3466741.445 22393916.671 10 0 59879 73800.00000 0 12451946.504 6073567.106 21439114.468 10 0 59879 74700.00000 0 13293589.278 8487361.756 20068823.198 10 0 59879 75600.00000 0 14235567.162 10655717.668 18309527.288 10 0 59879 76500.00000 0 15228514.981 12535886.144 16195247.128 10 0 59879 77400.00000 0 16217393.944 14096307.917 13766891.221 10 0 59879 78300.00000 0 17143864.591 15317682.802 11071474.770 10 0 59879 79200.00000 0 17948819.104 16193534.509 8161218.642 10 0 59879 80100.00000 0 18574966.963 16730247.205 5092545.215 10 0 59879 81000.00000 0 18969365.231 16946572.418 1924989.769 10 0 59879 81900.00000 0 19085786.535 16872626.967 -1279951.952 10 0 59879 82800.00000 0 18886824.136 16548424.016 -4460017.681 10 0 59879 83700.00000 0 18345644.162 16021999.194 -7553390.697 10 0 59879 84600.00000 0 17447309.611 15347210.988 -10499906.076 10 0 59879 85500.00000 0 16189618.664 14581308.574 -13242226.902 10 0 59880 0.00000 0 14583420.350 13782370.403 -15726966.697 10 0 59880 900.00000 0 12652391.615 13006721.919 -17905736.762 10 0 59880 1800.00000 0 10432285.778 12306443.309 -19736094.039 10 0 59880 2700.00000 0 7969679.606 11727071.850 -21182374.987 10 0 59880 3600.00000 0 5320272.364 11305597.664 -22216395.416 10 0 59880 4500.00000 0 2546806.317 11068837.693 -22818003.719 10 0 59880 5400.00000 0 -283305.028 11032257.068 -22975476.368 10 0 59880 6300.00000 0 -3100542.499 11199287.994 -22685747.892 10 0 59880 7200.00000 0 -5835933.939 11561175.058 -21954470.794 10 0 59880 8100.00000 0 -8423683.754 12097353.571 -20795904.297 10 0 59880 9000.00000 0 -10803670.074 12776344.855 -19232634.051 10 0 59880 9900.00000 0 -12923705.688 13557130.462 -17295128.378 10 0 59880 10800.00000 0 -14741469.049 14390946.933 -15021139.800 10 0 59880 11700.00000 0 -16226025.474 15223424.829 -12454963.685 10 0 59880 12600.00000 0 -17358875.868 15996981.065 -9646568.870 10 0 59880 13500.00000 0 -18134490.450 16653362.873 -6650617.609 10 0 59880 14400.00000 0 -18560306.595 17136235.208 -3525394.551 10 0 59880 15300.00000 0 -18656192.648 17393701.713 -331666.335 10 0 59880 16200.00000 0 -18453402.100 17380652.215 2868505.248 10 0 59880 17100.00000 0 -17993064.005 17060837.326 6012972.815 10 0 59880 18000.00000 0 -17324274.915 16408582.405 9040711.483 10 0 59880 18900.00000 0 -16501874.197 15410068.625 11893001.756 10 0 59880 19800.00000 0 -15583997.519 14064127.261 14514564.215 10 0 59880 20700.00000 0 -14629512.235 12382513.952 16854624.245 10 0 59880 21600.00000 0 -13695442.766 10389651.396 18867886.817 10 0 59880 22500.00000 0 -12834494.022 8121851.100 20515403.402 10 0 59880 23400.00000 0 -12092776.315 5626046.327 21765315.267 10 0 59880 24300.00000 0 -11507826.370 2958088.330 22593460.039 10 0 59880 25200.00000 0 -11107006.486 180675.733 22983830.919 10 0 59880 26100.00000 0 -10906347.973 -2638998.151 22928880.638 10 0 59880 27000.00000 0 -10909886.590 -5431784.001 22429664.949 10 0 59880 27900.00000 0 -11109517.309 -8129197.583 21495823.177 10 0 59880 28800.00000 0 -11485374.379 -10666016.206 20145396.095 10 0 59880 29700.00000 0 -12006720.990 -12982744.504 18404484.157 10 0 59880 30600.00000 0 -12633311.747 -15027848.639 16306751.828 10 0 59880 31500.00000 0 -13317171.542 -16759667.168 13892786.561 10 0 59880 32400.00000 0 -14004716.918 -18147919.929 11209323.620 10 0 59880 33300.00000 0 -14639131.457 -19174752.545 8308350.559 10 0 59880 34200.00000 0 -15162895.773 -19835273.095 5246107.724 10 0 59880 35100.00000 0 -15520365.708 -20137558.537 2082003.350 10 0 59880 36000.00000 0 -15660289.839 -20102130.447 -1122536.225 10 0 59880 36900.00000 0 -15538159.437 -19760921.913 -4305258.948 10 0 59880 37800.00000 0 -15118290.688 -19155778.920 -7404298.763 10 0 59880 38700.00000 0 -14375549.850 -18336559.310 -10359382.663 10 0 59880 39600.00000 0 -13296646.941 -17358909.593 -13113008.890 10 0 59880 40500.00000 0 -11880941.569 -16281813.677 -15611572.690 10 0 59880 41400.00000 0 -10140725.051 -15165017.357 -17806416.991 10 0 59880 42300.00000 0 -8100965.182 -14066437.774 -19654786.787 10 0 59880 43200.00000 0 -5798522.664 -13039667.684 -21120668.184 10 0 59880 44100.00000 0 -3280870.547 -12131680.320 -22175495.312 10 0 59880 45000.00000 0 -604369.114 -11380832.080 -22798711.051 10 0 59880 45900.00000 0 2167832.622 -10815247.527 -22978170.500 10 0 59880 46800.00000 0 4968181.985 -10451654.926 -22710379.252 10 0 59880 47700.00000 0 7727295.159 -10294721.344 -22000561.775 10 0 59880 48600.00000 0 10376610.307 -10336915.136 -20862558.599 10 0 59880 49500.00000 0 12851010.987 -10558901.226 -19318554.286 10 0 59880 50400.00000 0 15091310.629 -10930451.974 -17398641.575 10 0 59880 51300.00000 0 17046494.828 -11411834.491 -15140230.296 10 0 59880 52200.00000 0 18675628.304 -11955615.070 -12587312.751 10 0 59880 53100.00000 0 19949347.449 -12508803.601 -9789600.268 10 0 59880 54000.00000 0 20850877.015 -13015246.466 -6801548.180 10 0 59880 54900.00000 0 21376529.541 -13418165.824 -3681288.811 10 0 59880 55800.00000 0 21535667.989 -13662737.092 -489494.001 10 0 59880 56700.00000 0 21350134.849 -13698594.944 2711809.987 10 0 59880 57600.00000 0 20853173.405 -13482161.328 5860451.452 10 0 59880 58500.00000 0 20087888.219 -12978696.803 8895321.989 10 0 59880 59400.00000 0 19105311.135 -12163988.436 11757561.180 10 0 59880 60300.00000 0 17962155.365 -11025603.012 14391694.248 10 0 59880 61200.00000 0 16718352.961 -9563652.819 16746700.770 10 0 59880 62100.00000 0 15434479.539 -7791041.806 18776994.409 10 0 59880 63000.00000 0 14169174.276 -5733181.547 20443295.597 10 0 59880 63900.00000 0 12976662.952 -3427188.571 21713381.311 10 0 59880 64800.00000 0 11904486.952 -920595.841 22562698.669 10 0 59880 65700.00000 0 10991532.241 1730368.921 22974831.626 10 0 59880 66600.00000 0 10266439.664 4462867.682 22941812.690 10 0 59880 67500.00000 0 9746461.919 7209814.260 22464274.354 10 0 59880 68400.00000 0 9436814.127 9902417.864 21551437.625 10 0 59880 69300.00000 0 9330544.529 12472804.130 20220937.781 10 0 59880 70200.00000 0 9408930.420 14856606.591 18498490.275 10 0 59880 71100.00000 0 9642382.776 16995422.481 16417402.378 10 0 59880 72000.00000 0 9991821.948 18839031.933 14017938.990 10 0 59880 72900.00000 0 10410467.133 20347289.128 11346553.700 10 0 59880 73800.00000 0 10845964.943 21491607.091 8454998.762 10 0 59880 74700.00000 0 11242767.895 22255974.260 5399330.267 10 0 59880 75600.00000 0 11544662.836 22637460.243 2238826.967 10 0 59880 76500.00000 0 11697342.510 22646189.303 -965156.814 10 0 59880 77400.00000 0 11650911.291 22304782.270 -4150381.964 10 0 59880 78300.00000 0 11362218.323 21647290.023 -7254935.856 10 0 59880 79200.00000 0 10796918.313 20717663.100 -10218440.120 10 0 59880 80100.00000 0 9931171.381 19567821.785 -12983230.773 10 0 59880 81000.00000 0 8752908.454 18255407.984 -15495487.035 10 0 59880 81900.00000 0 7262606.914 16841313.838 -17706286.178 10 0 59880 82800.00000 0 5473541.960 15387091.507 -19572563.092 10 0 59880 83700.00000 0 3411501.242 13952353.658 -21057955.410 10 0 59880 84600.00000 0 1113973.020 12592274.458 -22133517.257 10 0 59880 85500.00000 0 -1371159.492 11355296.662 -22778287.441 99